Volver al catálogo

ONEWEB-0393

ActivoComunicacionesPO
NORAD 50473·PAYLOAD·🇬🇧 United Kingdom

Lanzado Dec 27, 2021 desde Baikonur Cosmodrome

Loading…

Próximos Pases (próximas 24 horas)

TLE

ActualizadoSource: CelesTrak SupGP

Época: Sep 14, 2026, 19:48 UTC

1 50473C 21132E   26257.82553655 -.00001718  00000+0 -44311-2 0  2579
2 50473  87.9198 348.0628 0001947 107.0211 314.1223 13.17648090    13

Sigue ONEWEB-0393 en tiempo real con AllMySat

Download on the App Store